{"data":{"norad_id":62959,"intl_designator":"2025-029M","name":"STARLINK-32896","alt_names":[],"object_type":"PAYLOAD","status":"ACTIVE","operator":null,"country":"US","launch_date":"2025-02-11","launch_site_code":"AFWTR","launch_vehicle":null,"mission":null,"orbit_class":"UNKNOWN","rcs_meters":null,"size_class":null,"mass_kg":null,"dimensions":null,"purposes":["comms"],"wikipedia_slug":null,"has_3d_model":false,"image_url":null,"decayed_at":null,"tle_current":{"epoch":"2026-09-21T12:43:40.763424Z","epoch_age_seconds":76584,"freshness":"FRESH","line1":"1 62959U 25029M   26264.53033291  .00020343  00000+0  61146-3 0  9997","line2":"2 62959  53.1588  41.2375 0000975  75.6046 284.5065 15.34405680 91325","mean_motion":15.3440568,"eccentricity":9.75e-5,"inclination_deg":53.1588,"raan_deg":41.2375,"arg_perigee_deg":75.6046,"mean_anomaly_deg":284.5065,"bstar":0.00061146,"rev_number":9132,"period_min":93.847410679554,"perigee_km":462.01937782476,"apogee_km":463.35333837959,"semimajor_km":6840.8233581022,"source":"CELESTRAK","updated_at":"2026-09-22T09:00:49.713397Z"}}}